GFSFLT1_prec_precacc12_129.txt.gz
Total_Precipitation_Accumulation
0.00 0.00 0.00 0.00 0.00 0.00 0.00 0.00 0.00 0.00 0.00 0.00 0.00 0.00 0.00 0.00 0.00 0.00 0.00 0.00 0.00 0.00 0.00 0.00 0.00 0.00 0.00 0.00 0.00 0.00 0.00 0.00
0.00 0.00 0.00 0.00 0.00 0.00 0.00 0.00 0.00 0.00 0.00 0.00 0.00 0.01 0.00 0.00 0.00 0.00 0.00 0.00 0.00 0.00 0.00 0.00 0.00 0.00 0.00 0.00 0.00 0.01 0.02 0.02
0.00 0.00 0.00 0.00 0.00 0.00 0.00 0.00 0.00 0.00 0.00 0.01 0.05 0.09 0.04 0.01 0.01 0.00 0.00 0.00 0.01 0.03 0.01 0.01 0.01 0.01 0.01 0.01 0.01 0.02 0.04 0.04
0.00 0.00 0.00 0.00 0.00 0.00 0.00 0.00 0.00 0.00 0.01 0.04 0.07 0.26 0.20 0.06 0.04 0.01 0.07 0.05 0.05 0.03 0.04 0.03 0.02 0.02 0.02 0.02 0.04 0.04 0.03 0.04
0.00 0.00 0.00 0.00 0.00 0.00 0.00 0.01 0.03 0.05 0.08 0.10 0.13 0.12 0.07 0.02 0.02 0.09 0.14 0.14 0.16 0.14 0.12 0.12 0.11 0.10 0.03 0.03 0.05 0.03 0.03 0.04
0.00 0.00 0.00 0.00 0.00 0.00 0.00 0.00 0.01 0.03 0.07 0.09 0.19 0.22 0.24 0.20 0.27 0.39 0.42 0.45 0.49 0.41 0.36 0.34 0.26 0.17 0.09 0.05 0.06 0.06 0.04 0.03
0.00 0.00 0.00 0.00 0.00 0.00 0.00 0.00 0.00 0.01 0.04 0.06 0.10 0.12 0.14 0.18 0.24 0.31 0.40 0.46 0.67 0.73 0.76 0.69 0.51 0.18 0.15 0.16 0.19 0.12 0.07 0.04
0.00 0.00 0.00 0.00 0.00 0.00 0.00 0.01 0.01 0.01 0.02 0.03 0.05 0.06 0.07 0.09 0.12 0.11 0.18 0.22 0.15 0.13 0.22 0.21 0.21 0.21 0.15 0.16 0.12 0.10 0.09 0.06
0.00 0.00 0.00 0.01 0.01 0.01 0.01 0.02 0.02 0.01 0.02 0.03 0.03 0.04 0.04 0.04 0.06 0.03 0.03 0.05 0.05 0.05 0.06 0.10 0.10 0.13 0.14 0.14 0.11 0.07 0.08 0.07
0.08 0.07 0.05 0.04 0.02 0.01 0.01 0.01 0.01 0.01 0.01 0.01 0.01 0.01 0.01 0.01 0.02 0.01 0.01 0.01 0.00 0.00 0.01 0.02 0.04 0.05 0.08 0.08 0.07 0.05 0.05 0.05
0.10 0.09 0.08 0.05 0.02 0.02 0.01 0.01 0.01 0.01 0.00 0.00 0.00 0.00 0.00 0.00 0.00 0.00 0.01 0.00 0.00 0.00 0.01 0.01 0.01 0.03 0.04 0.06 0.05 0.04 0.03 0.03
0.11 0.07 0.05 0.03 0.02 0.02 0.01 0.01 0.01 0.00 0.00 0.00 0.00 0.00 0.00 0.00 0.00 0.00 0.01 0.01 0.01 0.02 0.02 0.02 0.01 0.02 0.03 0.04 0.04 0.03 0.04 0.04
0.12 0.10 0.04 0.03 0.03 0.03 0.02 0.00 0.00 0.00 0.00 0.00 0.00 0.00 0.00 0.00 0.00 0.00 0.01 0.02 0.01 0.01 0.02 0.02 0.02 0.02 0.02 0.04 0.05 0.04 0.04 0.05
0.42 0.34 0.24 0.05 0.05 0.06 0.03 0.03 0.02 0.00 0.00 0.00 0.00 0.00 0.00 0.01 0.00 0.01 0.01 0.03 0.02 0.02 0.03 0.04 0.02 0.02 0.02 0.02 0.03 0.04 0.04 0.04
0.35 0.32 0.40 0.26 0.05 0.02 0.03 0.01 0.05 0.05 0.02 0.00 0.00 0.00 0.00 0.02 0.03 0.03 0.04 0.03 0.03 0.02 0.03 0.04 0.03 0.03 0.03 0.03 0.03 0.04 0.04 0.04
0.40 0.44 0.24 0.10 0.07 0.01 0.00 0.00 0.00 0.00 0.00 0.00 0.00 0.00 0.00 0.01 0.01 0.01 0.02 0.04 0.03 0.02 0.04 0.05 0.04 0.04 0.05 0.05 0.05 0.05 0.06 0.05
0.26 0.22 0.16 0.05 0.02 0.01 0.00 0.00 0.00 0.00 0.00 0.00 0.00 0.00 0.00 0.00 0.01 0.01 0.02 0.06 0.06 0.07 0.03 0.04 0.08 0.06 0.09 0.07 0.06 0.03 0.05 0.05
0.13 0.04 0.03 0.03 0.01 0.00 0.00 0.00 0.00 0.00 0.00 0.00 0.00 0.00 0.01 0.01 0.01 0.01 0.03 0.07 0.09 0.10 0.09 0.05 0.05 0.06 0.10 0.05 0.06 0.05 0.06 0.06
0.04 0.04 0.02 0.01 0.00 0.00 0.00 0.00 0.00 0.00 0.00 0.00 0.00 0.00 0.01 0.02 0.02 0.02 0.04 0.10 0.13 0.12 0.11 0.08 0.05 0.05 0.13 0.10 0.09 0.05 0.05 0.07

GFSFLT1_prec_precacc12_132.txt.gz
Total_Precipitation_Accumulation
0.00 0.00 0.00 0.00 0.00 0.00 0.00 0.00 0.00 0.00 0.00 0.00 0.00 0.00 0.00 0.00 0.00 0.00 0.00 0.00 0.00 0.00 0.00 0.00 0.00 0.00 0.00 0.00 0.00 0.00 0.00 0.00
0.00 0.00 0.00 0.00 0.00 0.00 0.00 0.00 0.00 0.00 0.00 0.01 0.00 0.01 0.00 0.00 0.00 0.00 0.00 0.00 0.00 0.00 0.00 0.00 0.00 0.00 0.00 0.00 0.00 0.01 0.02 0.02
0.00 0.00 0.00 0.00 0.00 0.00 0.00 0.00 0.00 0.00 0.00 0.00 0.01 0.02 0.01 0.01 0.01 0.00 0.00 0.00 0.01 0.03 0.01 0.00 0.00 0.00 0.01 0.01 0.01 0.02 0.03 0.04
0.00 0.00 0.00 0.00 0.00 0.00 0.00 0.00 0.00 0.00 0.00 0.00 0.01 0.19 0.18 0.06 0.02 0.00 0.06 0.05 0.05 0.04 0.04 0.02 0.01 0.01 0.01 0.02 0.03 0.04 0.03 0.04
0.00 0.00 0.00 0.00 0.00 0.00 0.00 0.00 0.02 0.03 0.05 0.07 0.10 0.12 0.07 0.02 0.02 0.08 0.14 0.14 0.16 0.14 0.12 0.12 0.11 0.10 0.02 0.03 0.05 0.03 0.06 0.05
0.00 0.00 0.00 0.00 0.00 0.00 0.00 0.00 0.01 0.03 0.07 0.08 0.18 0.21 0.23 0.20 0.27 0.41 0.43 0.45 0.49 0.40 0.38 0.38 0.41 0.30 0.17 0.19 0.22 0.13 0.08 0.10
0.00 0.00 0.00 0.00 0.00 0.00 0.00 0.00 0.00 0.02 0.09 0.07 0.11 0.13 0.18 0.21 0.25 0.34 0.43 0.51 0.69 0.79 0.88 0.83 0.84 0.73 0.47 0.34 0.31 0.26 0.17 0.12
0.01 0.01 0.01 0.00 0.00 0.01 0.01 0.01 0.01 0.01 0.03 0.05 0.09 0.13 0.23 0.13 0.14 0.20 0.20 0.24 0.17 0.18 0.31 0.29 0.30 0.37 0.32 0.27 0.23 0.18 0.16 0.08
0.05 0.04 0.03 0.03 0.02 0.01 0.01 0.02 0.02 0.02 0.04 0.04 0.05 0.15 0.15 0.08 0.08 0.09 0.10 0.08 0.05 0.06 0.05 0.09 0.09 0.12 0.13 0.13 0.14 0.11 0.10 0.10
0.16 0.13 0.11 0.09 0.08 0.03 0.01 0.01 0.02 0.02 0.03 0.04 0.03 0.06 0.03 0.04 0.04 0.02 0.02 0.02 0.01 0.00 0.01 0.01 0.02 0.04 0.07 0.07 0.07 0.06 0.07 0.06
0.22 0.19 0.16 0.11 0.14 0.08 0.04 0.03 0.02 0.01 0.01 0.02 0.01 0.00 0.00 0.00 0.01 0.00 0.00 0.00 0.00 0.00 0.00 0.00 0.00 0.01 0.03 0.05 0.05 0.04 0.04 0.03
0.31 0.35 0.24 0.10 0.10 0.07 0.03 0.04 0.03 0.01 0.00 0.00 0.00 0.00 0.00 0.00 0.00 0.00 0.00 0.00 0.00 0.00 0.00 0.01 0.01 0.01 0.02 0.04 0.04 0.04 0.05 0.05
0.27 0.18 0.12 0.05 0.05 0.04 0.03 0.02 0.04 0.01 0.00 0.00 0.00 0.00 0.00 0.00 0.00 0.00 0.00 0.00 0.00 0.00 0.00 0.01 0.01 0.01 0.01 0.03 0.04 0.04 0.04 0.05
0.75 0.60 0.39 0.13 0.07 0.06 0.03 0.03 0.04 0.04 0.01 0.00 0.00 0.00 0.00 0.00 0.00 0.00 0.00 0.00 0.01 0.00 0.01 0.01 0.01 0.01 0.02 0.01 0.02 0.03 0.04 0.04
0.78 0.75 0.91 0.76 0.28 0.14 0.15 0.07 0.06 0.07 0.03 0.01 0.01 0.00 0.00 0.00 0.00 0.00 0.01 0.01 0.01 0.01 0.01 0.02 0.03 0.03 0.02 0.03 0.03 0.03 0.04 0.04
0.68 0.69 0.50 0.52 0.56 0.31 0.20 0.25 0.10 0.07 0.05 0.02 0.00 0.00 0.00 0.00 0.00 0.00 0.00 0.01 0.01 0.01 0.01 0.03 0.04 0.04 0.05 0.04 0.04 0.04 0.04 0.04
0.31 0.27 0.21 0.10 0.08 0.09 0.06 0.09 0.05 0.03 0.03 0.02 0.00 0.00 0.00 0.00 0.00 0.00 0.00 0.00 0.00 0.01 0.02 0.03 0.07 0.06 0.08 0.07 0.05 0.05 0.05 0.05
0.14 0.05 0.04 0.04 0.02 0.01 0.00 0.00 0.00 0.00 0.00 0.00 0.00 0.00 0.00 0.00 0.00 0.00 0.00 0.00 0.01 0.01 0.03 0.03 0.04 0.06 0.09 0.04 0.05 0.06 0.07 0.06
0.04 0.05 0.03 0.01 0.00 0.00 0.00 0.00 0.00 0.00 0.00 0.00 0.00 0.00 0.00 0.00 0.00 0.00 0.01 0.01 0.02 0.02 0.04 0.07 0.05 0.05 0.12 0.09 0.09 0.06 0.05 0.07

GFSFLT1_prec_precacc12_135.txt.gz
Total_Precipitation_Accumulation
0.00 0.00 0.00 0.00 0.00 0.00 0.00 0.00 0.00 0.00 0.00 0.00 0.00 0.00 0.00 0.00 0.00 0.00 0.00 0.00 0.00 0.00 0.00 0.00 0.00 0.00 0.01 0.00 0.00 0.00 0.00 0.00
0.00 0.00 0.00 0.00 0.00 0.00 0.00 0.00 0.00 0.00 0.00 0.01 0.00 0.01 0.00 0.00 0.00 0.00 0.00 0.00 0.00 0.00 0.00 0.00 0.00 0.00 0.00 0.00 0.00 0.01 0.02 0.02
0.00 0.00 0.00 0.00 0.00 0.00 0.00 0.00 0.00 0.00 0.00 0.00 0.01 0.01 0.00 0.00 0.00 0.00 0.00 0.00 0.01 0.03 0.01 0.00 0.00 0.00 0.01 0.02 0.01 0.02 0.03 0.04
0.00 0.00 0.00 0.00 0.00 0.00 0.00 0.00 0.00 0.00 0.00 0.01 0.01 0.02 0.02 0.01 0.00 0.00 0.03 0.02 0.04 0.04 0.04 0.02 0.01 0.00 0.01 0.02 0.02 0.03 0.03 0.03
0.00 0.00 0.00 0.00 0.00 0.00 0.00 0.00 0.00 0.00 0.00 0.00 0.04 0.02 0.03 0.02 0.01 0.07 0.11 0.13 0.16 0.14 0.12 0.11 0.10 0.08 0.01 0.02 0.02 0.03 0.11 0.06
0.00 0.00 0.00 0.00 0.00 0.00 0.00 0.00 0.00 0.00 0.00 0.00 0.11 0.11 0.06 0.13 0.26 0.39 0.42 0.45 0.49 0.40 0.37 0.37 0.40 0.30 0.17 0.19 0.24 0.17 0.21 0.29
0.01 0.00 0.00 0.00 0.01 0.01 0.01 0.00 0.00 0.02 0.10 0.09 0.13 0.13 0.13 0.14 0.20 0.33 0.40 0.49 0.69 0.79 0.87 0.82 0.83 0.75 0.51 0.37 0.33 0.28 0.20 0.21
0.06 0.03 0.02 0.00 0.01 0.04 0.08 0.04 0.01 0.02 0.12 0.26 0.24 0.24 0.28 0.14 0.14 0.20 0.19 0.23 0.15 0.16 0.27 0.27 0.30 0.41 0.52 0.47 0.34 0.23 0.18 0.09
0.12 0.09 0.07 0.08 0.06 0.03 0.03 0.06 0.08 0.07 0.16 0.33 0.36 0.31 0.47 0.27 0.16 0.25 0.16 0.16 0.06 0.06 0.03 0.08 0.10 0.12 0.14 0.14 0.14 0.10 0.10 0.09
0.29 0.24 0.21 0.18 0.17 0.09 0.05 0.05 0.11 0.13 0.17 0.31 0.37 0.43 0.49 0.37 0.28 0.34 0.28 0.17 0.07 0.03 0.03 0.04 0.04 0.04 0.05 0.05 0.05 0.05 0.06 0.05
0.41 0.47 0.41 0.24 0.25 0.16 0.13 0.13 0.13 0.13 0.15 0.21 0.27 0.30 0.36 0.38 0.26 0.17 0.12 0.09 0.06 0.04 0.03 0.02 0.01 0.02 0.03 0.03 0.03 0.03 0.03 0.03
0.58 0.89 0.79 0.43 0.33 0.24 0.15 0.16 0.17 0.11 0.10 0.13 0.21 0.19 0.16 0.16 0.15 0.18 0.12 0.06 0.03 0.01 0.00 0.01 0.01 0.01 0.02 0.03 0.03 0.03 0.05 0.05
0.54 0.46 0.57 0.75 0.48 0.19 0.11 0.08 0.16 0.09 0.06 0.09 0.12 0.15 0.11 0.05 0.03 0.01 0.04 0.03 0.01 0.01 0.00 0.00 0.00 0.00 0.00 0.02 0.02 0.02 0.03 0.05
1.04 0.89 0.63 0.36 0.46 0.27 0.10 0.10 0.25 0.11 0.04 0.08 0.05 0.08 0.04 0.07 0.04 0.01 0.00 0.00 0.00 0.00 0.00 0.00 0.00 0.00 0.01 0.01 0.01 0.02 0.03 0.03
0.85 0.85 1.09 1.00 0.48 0.35 0.31 0.11 0.27 0.21 0.09 0.04 0.06 0.02 0.01 0.01 0.01 0.01 0.00 0.00 0.00 0.01 0.01 0.01 0.01 0.01 0.01 0.02 0.02 0.03 0.03 0.04
0.66 0.73 0.55 0.67 0.78 0.52 0.37 0.35 0.16 0.15 0.11 0.05 0.02 0.01 0.00 0.00 0.00 0.00 0.00 0.00 0.00 0.00 0.01 0.02 0.02 0.02 0.02 0.03 0.04 0.04 0.04 0.04
0.32 0.31 0.24 0.12 0.12 0.19 0.14 0.20 0.18 0.11 0.12 0.07 0.02 0.00 0.00 0.00 0.00 0.00 0.00 0.00 0.00 0.00 0.01 0.02 0.03 0.03 0.06 0.04 0.04 0.05 0.05 0.05
0.14 0.05 0.04 0.04 0.02 0.01 0.01 0.01 0.02 0.01 0.01 0.04 0.01 0.00 0.00 0.00 0.00 0.00 0.00 0.00 0.00 0.00 0.00 0.02 0.02 0.02 0.04 0.03 0.05 0.06 0.07 0.06
0.04 0.05 0.03 0.01 0.01 0.00 0.00 0.00 0.00 0.00 0.00 0.00 0.00 0.00 0.00 0.00 0.00 0.00 0.00 0.00 0.00 0.00 0.01 0.01 0.02 0.03 0.06 0.06 0.08 0.06 0.05 0.07

GFSFLT1_prec_precacc12_138.txt.gz
Total_Precipitation_Accumulation
0.00 0.00 0.00 0.00 0.00 0.00 0.00 0.00 0.00 0.00 0.02 0.06 0.07 0.03 0.01 0.02 0.00 0.00 0.00 0.00 0.01 0.03 0.02 0.02 0.03 0.03 0.01 0.01 0.01 0.01 0.00 0.00
0.00 0.00 0.00 0.00 0.00 0.00 0.00 0.00 0.00 0.00 0.02 0.09 0.09 0.05 0.06 0.06 0.00 0.00 0.00 0.00 0.00 0.01 0.02 0.03 0.01 0.01 0.01 0.00 0.02 0.04 0.02 0.02
0.00 0.00 0.00 0.00 0.00 0.00 0.00 0.00 0.00 0.00 0.00 0.02 0.08 0.11 0.13 0.06 0.03 0.00 0.00 0.00 0.00 0.00 0.00 0.01 0.00 0.00 0.02 0.02 0.01 0.01 0.03 0.04
0.00 0.00 0.00 0.00 0.00 0.00 0.00 0.00 0.00 0.00 0.00 0.02 0.14 0.22 0.26 0.22 0.10 0.00 0.00 0.00 0.00 0.00 0.01 0.01 0.00 0.00 0.01 0.03 0.01 0.01 0.01 0.02
0.00 0.00 0.00 0.00 0.00 0.00 0.00 0.00 0.00 0.00 0.00 0.01 0.11 0.12 0.09 0.03 0.04 0.03 0.01 0.06 0.10 0.13 0.11 0.10 0.07 0.07 0.01 0.03 0.02 0.02 0.10 0.06
0.00 0.00 0.00 0.00 0.00 0.00 0.00 0.00 0.00 0.00 0.00 0.00 0.10 0.15 0.12 0.12 0.16 0.22 0.15 0.25 0.40 0.36 0.36 0.36 0.38 0.29 0.16 0.18 0.22 0.16 0.21 0.32
0.01 0.00 0.00 0.00 0.01 0.01 0.01 0.00 0.00 0.01 0.08 0.06 0.08 0.15 0.24 0.28 0.22 0.19 0.19 0.28 0.58 0.74 0.83 0.79 0.82 0.73 0.48 0.35 0.31 0.27 0.19 0.23
0.06 0.03 0.02 0.01 0.00 0.03 0.08 0.03 0.01 0.02 0.11 0.23 0.24 0.29 0.39 0.31 0.22 0.22 0.13 0.13 0.08 0.14 0.20 0.22 0.24 0.35 0.49 0.43 0.30 0.21 0.17 0.09
0.12 0.10 0.08 0.08 0.06 0.02 0.02 0.04 0.07 0.07 0.14 0.32 0.45 0.41 0.64 0.47 0.37 0.31 0.17 0.14 0.05 0.05 0.03 0.06 0.08 0.09 0.11 0.12 0.13 0.08 0.08 0.07
0.28 0.23 0.20 0.18 0.17 0.12 0.10 0.10 0.16 0.20 0.22 0.32 0.55 0.73 0.78 0.77 0.67 0.75 0.56 0.35 0.13 0.03 0.04 0.06 0.04 0.04 0.11 0.07 0.04 0.04 0.05 0.04
0.37 0.48 0.46 0.30 0.30 0.22 0.19 0.21 0.22 0.24 0.29 0.26 0.46 0.72 0.79 0.79 0.81 0.61 0.53 0.29 0.22 0.13 0.06 0.10 0.23 0.13 0.07 0.03 0.02 0.02 0.02 0.01
0.54 0.91 0.91 0.63 0.57 0.45 0.36 0.35 0.31 0.20 0.20 0.20 0.33 0.63 0.63 0.77 0.81 0.64 0.62 0.35 0.19 0.09 0.07 0.09 0.21 0.42 0.26 0.09 0.05 0.03 0.04 0.04
0.54 0.51 0.76 1.10 1.03 0.63 0.41 0.31 0.38 0.26 0.17 0.18 0.25 0.38 0.60 0.63 0.61 0.43 0.25 0.33 0.29 0.19 0.20 0.13 0.08 0.05 0.07 0.05 0.04 0.03 0.03 0.04
1.04 0.96 0.76 0.58 0.85 0.91 0.55 0.38 0.48 0.37 0.15 0.19 0.20 0.34 0.59 0.63 0.56 0.45 0.43 0.30 0.10 0.08 0.16 0.22 0.18 0.07 0.03 0.02 0.02 0.02 0.02 0.02
0.79 0.83 1.13 1.11 0.65 0.73 0.69 0.48 0.73 0.61 0.25 0.16 0.18 0.25 0.34 0.43 0.27 0.33 0.47 0.61 0.30 0.04 0.01 0.03 0.04 0.02 0.01 0.01 0.02 0.02 0.02 0.02
0.46 0.50 0.43 0.63 0.79 0.65 0.53 0.54 0.40 0.56 0.37 0.23 0.19 0.14 0.17 0.19 0.15 0.10 0.20 0.20 0.27 0.18 0.04 0.01 0.01 0.01 0.01 0.02 0.02 0.02 0.03 0.03
0.23 0.22 0.19 0.10 0.12 0.19 0.15 0.24 0.24 0.19 0.26 0.17 0.20 0.14 0.05 0.05 0.05 0.07 0.09 0.10 0.06 0.04 0.01 0.01 0.01 0.02 0.03 0.02 0.02 0.03 0.03 0.03
0.11 0.05 0.04 0.04 0.02 0.01 0.01 0.01 0.02 0.02 0.04 0.07 0.05 0.02 0.01 0.01 0.01 0.02 0.02 0.03 0.01 0.01 0.01 0.01 0.01 0.02 0.03 0.02 0.02 0.03 0.04 0.03
0.03 0.04 0.03 0.01 0.01 0.01 0.00 0.00 0.00 0.00 0.00 0.00 0.02 0.02 0.00 0.00 0.00 0.00 0.00 0.00 0.00 0.00 0.00 0.00 0.00 0.02 0.04 0.03 0.03 0.02 0.03 0.04

GFSFLT1_prec_precacc12_144.txt.gz
Total_Precipitation_Accumulation
0.00 0.00 0.00 0.00 0.00 0.00 0.00 0.00 0.00 0.00 0.02 0.07 0.16 0.18 0.16 0.29 0.29 0.34 0.33 0.26 0.24 0.22 0.06 0.02 0.03 0.03 0.01 0.00 0.00 0.01 0.00 0.00
0.00 0.00 0.00 0.00 0.00 0.00 0.00 0.00 0.00 0.00 0.02 0.08 0.10 0.08 0.12 0.23 0.15 0.20 0.33 0.47 0.54 0.42 0.17 0.04 0.01 0.01 0.01 0.00 0.02 0.03 0.01 0.01
0.00 0.00 0.00 0.00 0.00 0.00 0.00 0.00 0.00 0.00 0.00 0.02 0.07 0.11 0.18 0.22 0.18 0.25 0.23 0.37 0.45 0.42 0.27 0.08 0.01 0.01 0.02 0.02 0.00 0.01 0.02 0.02
0.00 0.00 0.00 0.00 0.00 0.00 0.00 0.00 0.00 0.00 0.00 0.02 0.14 0.22 0.31 0.35 0.25 0.19 0.18 0.33 0.45 0.40 0.29 0.21 0.08 0.03 0.00 0.03 0.00 0.00 0.01 0.01
0.00 0.00 0.00 0.00 0.00 0.00 0.00 0.00 0.00 0.00 0.00 0.01 0.11 0.12 0.11 0.07 0.07 0.05 0.05 0.15 0.31 0.37 0.45 0.45 0.33 0.10 0.01 0.02 0.01 0.02 0.06 0.04
0.00 0.00 0.00 0.00 0.00 0.00 0.00 0.00 0.00 0.00 0.00 0.00 0.10 0.15 0.12 0.14 0.22 0.27 0.32 0.28 0.29 0.26 0.41 0.66 0.71 0.39 0.07 0.02 0.04 0.08 0.16 0.25
0.01 0.00 0.00 0.00 0.01 0.01 0.01 0.00 0.00 0.00 0.02 0.05 0.07 0.13 0.18 0.21 0.21 0.24 0.31 0.38 0.33 0.24 0.21 0.45 0.88 0.86 0.39 0.10 0.07 0.06 0.05 0.13
0.05 0.02 0.01 0.01 0.00 0.03 0.07 0.03 0.01 0.01 0.09 0.22 0.19 0.21 0.23 0.24 0.16 0.16 0.22 0.33 0.27 0.23 0.21 0.29 0.49 0.80 0.62 0.35 0.20 0.12 0.06 0.03
0.07 0.06 0.05 0.06 0.04 0.03 0.02 0.04 0.07 0.06 0.12 0.30 0.41 0.29 0.51 0.41 0.33 0.37 0.23 0.24 0.31 0.46 0.51 0.56 0.55 0.69 0.80 0.36 0.17 0.08 0.05 0.01
0.14 0.12 0.12 0.12 0.12 0.11 0.11 0.11 0.15 0.19 0.20 0.29 0.52 0.68 0.75 0.73 0.65 1.03 0.99 0.61 0.46 0.52 0.89 1.09 1.00 1.12 0.99 1.09 0.47 0.14 0.07 0.02
0.20 0.33 0.34 0.25 0.21 0.18 0.17 0.20 0.22 0.25 0.31 0.37 0.53 0.73 0.80 0.79 0.81 0.79 1.06 1.07 0.78 0.67 0.82 0.98 1.36 1.17 1.32 1.09 0.64 0.23 0.10 0.09
0.31 0.60 0.71 0.57 0.49 0.40 0.37 0.36 0.35 0.27 0.27 0.33 0.50 0.75 0.70 0.82 0.87 0.79 1.05 1.29 1.08 0.83 0.67 0.91 0.92 1.01 1.11 0.84 0.68 0.28 0.18 0.15
0.32 0.37 0.64 1.06 1.00 0.66 0.49 0.41 0.47 0.47 0.45 0.42 0.48 0.67 0.85 0.82 0.79 0.71 0.45 1.27 1.54 1.43 1.31 1.01 1.43 1.27 1.07 0.99 0.83 0.48 0.31 0.21
0.33 0.37 0.37 0.46 0.80 0.94 0.67 0.50 0.66 0.69 0.57 0.57 0.52 0.62 0.84 0.89 0.91 0.87 0.83 0.77 1.21 1.29 1.55 1.63 1.23 1.52 1.07 0.80 0.76 0.52 0.34 0.32
0.14 0.17 0.27 0.36 0.38 0.65 0.65 0.59 0.95 0.86 0.68 0.67 0.69 0.75 0.69 0.76 0.87 1.00 1.13 1.14 1.05 0.94 1.10 1.19 1.05 0.83 1.07 0.91 0.75 0.46 0.18 0.17
0.03 0.05 0.07 0.17 0.25 0.35 0.34 0.35 0.43 0.64 0.65 0.53 0.47 0.57 0.75 0.56 0.48 0.61 0.84 0.77 0.82 1.04 1.09 1.09 1.16 0.84 0.56 0.71 0.81 0.45 0.19 0.09
0.02 0.03 0.03 0.02 0.04 0.11 0.09 0.16 0.21 0.19 0.27 0.23 0.32 0.27 0.32 0.36 0.40 0.33 0.35 0.49 0.59 0.57 0.69 0.97 1.15 1.25 0.84 0.56 0.51 0.48 0.32 0.09
0.00 0.00 0.01 0.01 0.01 0.01 0.01 0.01 0.02 0.02 0.05 0.08 0.06 0.05 0.06 0.05 0.08 0.12 0.14 0.22 0.33 0.43 0.47 0.46 0.55 0.77 0.99 0.85 0.62 0.45 0.35 0.16
0.00 0.00 0.00 0.00 0.01 0.01 0.00 0.00 0.00 0.00 0.00 0.00 0.02 0.02 0.01 0.01 0.01 0.00 0.00 0.01 0.02 0.06 0.13 0.20 0.25 0.29 0.35 0.51 0.58 0.49 0.36 0.17